Helicity
74 69 70 67 76 72 69 69 68 61 51 55 64 67 72 53 62 43 44 27 48 59 51 62 55 88 97 118 111 101 138 108 107 124 147 109 141 151 197 231 206 184 104 79 204
81 79 70 78 76 72 83 84 71 59 53 50 53 63 85 48 36 44 60 47 38 26 57 100 92 98 115 120 124 130 112 74 95 108 151 124 123 165 193 204 210 176 163 178 219
85 83 65 73 86 68 57 62 68 65 54 51 60 65 79 39 26 47 38 16 12 23 19 23 34 63 107 110 114 109 101 86 93 99 111 147 135 131 162 165 102 113 160 173 209
87 83 71 75 86 71 52 64 80 66 61 62 67 70 70 25 70 61 42 40 32 16 29 50 60 77 117 113 113 108 70 68 75 84 104 139 171 161 138 127 94 92 164 227 221
90 90 77 73 86 86 74 69 88 84 62 65 74 66 20 52 48 80 66 54 40 46 66 68 94 89 120 121 108 94 100 86 60 67 56 114 136 142 132 136 121 160 186 187 200
101 95 92 85 92 93 87 68 64 82 71 62 64 47 22 78 67 70 63 58 68 70 78 63 61 61 91 104 104 83 81 70 49 60 75 83 111 129 132 134 132 133 169 193 213
104 105 97 99 95 102 88 73 58 61 67 66 65 45 49 42 94 77 54 59 68 71 81 66 48 60 68 89 78 76 72 69 55 67 79 80 73 108 133 105 118 90 157 203 217
103 108 126 156 148 147 134 101 67 54 59 68 76 71 55 70 81 47 80 65 60 73 74 69 54 64 71 85 98 92 86 80 75 81 112 112 -5 70 120 163 135 151 181 201 224
165 234 278 264 247 211 155 102 60 55 70 109 99 92 59 73 51 46 60 67 114 129 102 92 92 95 99 123 109 120 102 89 81 82 123 109 83 85 102 111 140 184 195 215 234
284 288 297 292 273 247 192 110 81 108 140 120 169 149 83 94 88 84 60 46 86 123 143 119 115 107 122 127 76 64 93 108 89 105 164 149 75 70 106 90 98 147 200 207 211
128 127 89 127 140 176 191 139 85 90 113 116 140 173 144 121 112 117 62 61 104 143 136 120 115 62 72 107 112 105 100 87 69 81 140 117 102 40 101 100 117 143 177 196 201
203 179 200 170 138 184 116 87 130 106 54 24 39 125 72 182 153 156 192 131 176 150 215 178 135 77 71 73 102 119 92 96 72 63 85 63 66 67 98 132 92 111 140 160 237
115 148 112 131 220 179 117 138 88 70 28 14 144 191 143 163 191 90 253 249 211 205 170 138 149 103 86 105 142 156 153 135 99 77 49 54 8 65 123 135 132 124 116 144 243
87 93 51 99 149 130 115 123 111 -2 21 -33 34 75 116 199 170 98 139 252 224 152 202 89 111 175 137 161 124 109 114 139 145 155 135 110 -12 107 94 104 158 153 182 178 231
86 77 104 121 147 154 160 167 127 51 105 31 28 35 30 38 124 96 92 180 162 224 241 173 124 89 83 124 186 171 155 120 172 189 194 190 206 189 149 95 75 128 138 142 205
86 119 129 174 187 165 158 162 148 123 144 130 69 35 56 44 75 83 83 124 128 162 219 162 189 239 220 202 127 200 201 249 273 254 247 222 194 -74 141 146 199 222 180 143 149
84 58 79 113 176 131 171 237 221 162 196 112 130 79 79 79 81 86 104 109 144 156 114 140 146 225 275 256 233 255 299 252 236 344 338 191 205 218 223 191 174 155 111 98 128
88 85 86 88 89 117 202 333 189 121 172 260 198 147 111 113 106 129 149 110 76 193 184 127 158 65 166 173 242 243 265 334 322 275 196 257 364 350 299 261 220 199 145 145 154
141 147 143 72 123 125 278 328 344 292 306 281 211 186 151 174 193 221 197 194 159 162 146 135 168 161 147 111 74 146 241 184 248 242 243 266 283 203 222 206 223 209 162 126 89
209 193 198 143 223 255 268 231 250 273 284 273 255 279 233 227 197 176 207 243 243 124 208 268 210 196 205 178 115 174 167 234 344 329 307 285 264 278 197 144 154 139 131 132 86
208 167 179 229 307 349 380 288 207 229 266 226 230 209 163 180 182 231 272 250 242 216 158 274 246 263 263 256 199 235 263 269 290 315 365 281 250 256 172 208 281 286 292 242 159
183 350 173 226 287 323 281 248 214 133 143 170 204 183 191 182 217 274 274 327 302 253 339 339 266 254 213 250 252 280 291 341 345 334 373 346 279 271 347 354 451 462 345 259 195
15 78 107 219 245 313 235 181 181 159 169 145 153 174 198 214 214 210 319 374 448 319 293 287 245 209 202 178 301 397 452 442 353 353 248 284 328 281 463 521 476 475 401 345 242
21 69 48 99 158 220 212 169 156 196 225 217 209 217 194 111 153 100 138 232 298 224 249 257 311 296 307 311 246 254 346 311 326 330 374 339 324 358 414 420 476 565 465 326 216
139 70 111 112 69 155 209 190 131 174 160 133 198 196 174 172 98 131 113 113 85 69 80 89 104 118 66 37 48 104 113 87 139 141 212 180 171 154 118 -39 -48 -10 -18 36 52
155 179 169 82 63 17 119 187 157 135 176 119 230 174 189 191 196 107 69 89 70 42 86 71 101 58 79 15 -1 26 55 47 22 23 -15 -54 18 42 85 97 62 28 66 20 -4
167 146 162 147 181 130 41 174 184 163 155 153 123 132 176 136 79 90 136 137 131 140 102 103 97 61 62 8 4 28 23 -9 46 59 35 27 35 29 24 88 77 30 56 43 50
Wind_Speed
45 46 47 49 52 53 55 58 61 64 67 71 74 77 80 81 80 60 50 43 43 52 49 50 42 43 32 33 30 27 34 37 37 31 34 28 23 16 21 9 20 27 26 22 13
49 49 49 50 54 54 55 57 60 63 67 70 73 76 80 80 68 51 42 41 48 52 50 52 49 46 34 32 31 30 34 36 33 30 32 32 21 15 18 12 23 25 22 11 8
52 51 51 54 53 54 55 56 59 62 66 69 72 75 78 69 61 44 39 44 48 49 44 39 42 38 36 34 32 30 35 32 36 32 36 30 24 20 18 16 17 11 4 3 3
53 53 53 54 53 52 54 57 59 62 64 67 70 74 75 55 62 40 46 44 44 44 42 43 41 40 38 38 36 36 34 33 34 34 36 29 26 26 18 26 31 16 3 3 3
57 54 53 53 50 50 54 57 59 60 64 67 69 72 61 62 61 45 43 44 44 44 44 43 42 42 41 40 43 39 37 37 37 44 39 34 32 34 21 30 21 6 4 5 5
58 57 56 52 49 51 54 57 60 62 65 66 66 68 61 78 41 41 47 48 45 44 43 40 38 39 39 40 41 41 42 45 45 41 39 36 38 27 29 24 19 8 7 7 7
58 57 58 54 51 52 54 57 61 63 64 63 62 59 67 69 47 49 54 46 40 38 39 34 36 39 35 39 40 43 52 53 43 42 42 35 40 29 39 22 17 10 9 9 9
61 58 55 52 52 53 56 60 62 63 64 61 56 57 74 56 53 57 45 46 36 35 36 38 37 40 40 40 42 47 49 54 44 42 39 26 52 53 30 23 21 15 11 11 11
59 52 49 50 52 55 59 64 66 63 58 51 55 55 78 56 46 37 30 34 30 30 35 37 36 39 39 39 49 45 55 47 46 32 33 24 54 47 35 25 25 20 17 16 14
45 45 45 47 53 58 63 64 54 49 50 49 53 62 56 58 44 40 32 26 30 27 35 37 42 39 39 36 44 45 46 46 45 37 34 34 35 58 47 24 20 19 19 19 19
31 34 34 40 43 48 51 51 60 61 53 60 52 49 47 49 47 39 33 26 29 34 38 39 44 44 38 27 41 47 45 47 44 42 46 44 48 45 40 32 26 22 23 24 24
21 24 27 34 41 46 41 50 50 51 76 64 66 71 71 58 69 55 38 44 39 47 38 46 51 58 59 51 39 40 46 47 52 49 46 53 54 47 40 33 26 24 24 27 28
25 25 31 35 39 43 43 40 44 43 70 77 63 70 68 52 72 67 46 50 53 52 47 61 56 47 45 51 49 47 49 53 56 57 57 66 76 51 45 40 37 34 32 31 33
28 27 32 36 43 44 44 40 41 42 71 73 58 56 46 46 73 47 41 49 53 64 57 66 57 56 57 55 50 62 49 51 55 57 66 49 101 58 46 39 40 41 40 40 38
33 33 33 38 37 40 44 42 41 41 76 50 45 34 33 36 47 47 36 44 65 57 50 61 53 51 60 61 50 60 49 49 52 56 67 60 66 66 48 49 46 45 43 40 36
41 36 34 40 44 41 42 42 37 54 74 54 39 43 43 46 45 40 38 34 41 58 63 68 58 55 56 52 49 48 51 54 56 58 81 65 61 109 66 61 57 50 45 37 32
28 33 35 32 47 38 35 37 57 70 51 57 56 48 52 52 51 45 46 48 53 59 69 65 69 61 57 59 47 46 52 67 72 68 83 57 62 78 59 50 49 51 45 39 34
33 29 31 31 25 28 31 44 77 67 62 53 55 53 58 53 59 52 50 61 58 55 60 63 73 52 57 64 65 60 58 71 83 79 86 63 81 75 58 57 57 57 47 41 39
27 32 36 31 23 19 38 70 77 67 60 64 57 61 64 61 59 56 64 67 59 53 60 60 69 52 49 48 41 59 69 69 82 76 85 81 77 66 55 56 57 53 48 43 36
31 34 44 27 25 29 56 74 69 56 55 58 67 58 67 63 61 56 59 55 63 55 50 56 76 59 56 46 43 51 43 60 61 83 91 86 84 78 59 53 51 50 48 41 35
41 47 42 20 25 47 71 73 66 54 53 64 67 66 62 62 58 59 59 55 57 55 48 57 64 63 55 56 59 57 63 59 60 69 85 92 80 60 59 47 47 47 44 40 35
45 57 37 21 50 52 70 60 53 51 54 56 58 65 64 61 58 57 57 58 55 50 52 53 57 74 71 57 48 49 56 57 74 78 68 75 83 51 43 40 44 49 49 49 46
48 49 38 40 64 63 59 64 59 60 58 55 62 55 49 55 66 60 51 40 44 49 55 54 61 76 68 59 54 58 58 59 63 66 79 83 77 47 48 53 56 61 65 61 54
49 63 48 47 53 64 66 73 75 62 65 56 59 57 59 64 56 55 52 43 43 45 45 46 56 66 77 68 57 64 65 60 61 71 74 77 81 71 71 65 71 80 83 72 58
54 63 58 60 63 64 62 65 73 75 62 55 62 63 61 69 65 68 57 52 51 46 52 47 63 61 59 56 56 64 70 64 63 62 71 72 72 77 80 66 64 64 70 71 72
54 59 57 69 68 64 57 66 72 68 62 69 73 60 57 65 59 64 56 55 60 47 49 42 65 60 74 64 64 72 71 67 68 71 71 71 78 78 79 71 62 61 57 59 61
45 45 55 67 66 70 69 67 60 56 60 62 64 68 67 69 63 61 53 48 51 52 47 45 56 57 75 62 60 77 70 61 60 58 59 70 69 74 74 64 57 62 64 63 63
Wind_Direction
296 300 303 307 310 314 317 319 322 323 325 325 326 325 324 323 323 335 334 343 344 338 343 340 344 340 346 335 338 341 321 315 317 318 320 328 324 333 317 319 311 307 327 343 81
293 296 300 304 307 311 315 319 322 323 323 324 324 325 323 324 328 330 340 346 342 338 337 334 334 335 333 331 330 322 316 314 322 324 325 323 322 321 314 306 306 306 330 25 69
290 293 296 300 304 308 313 317 320 321 321 323 325 325 324 330 327 329 344 342 342 340 339 343 336 339 328 324 323 323 310 316 319 320 322 325 320 317 310 294 293 290 308 18 49
287 290 293 297 302 306 311 314 317 319 320 322 324 324 323 333 314 333 337 339 343 347 344 335 333 325 323 318 320 314 314 314 316 319 317 316 320 313 305 310 303 299 228 150 181
285 288 291 295 300 305 309 312 314 316 318 321 323 323 326 316 313 329 334 332 336 338 335 332 329 324 315 317 314 311 311 311 313 310 311 312 305 306 309 311 321 322 235 238 254
284 286 288 292 296 301 306 308 310 311 314 319 322 322 318 305 327 330 326 325 328 330 327 328 327 326 319 315 313 314 311 306 306 308 309 303 298 303 303 312 310 289 231 228 220
283 285 286 289 293 298 302 304 306 309 312 315 319 320 309 304 319 316 313 316 321 326 324 327 327 320 323 316 317 312 304 305 305 305 301 307 295 291 295 299 294 277 259 256 245
281 283 285 287 292 297 300 302 304 305 308 313 316 315 301 311 313 310 313 308 311 315 315 317 318 314 311 314 313 307 307 300 309 305 303 301 224 290 296 287 281 269 244 239 249
280 281 283 288 292 296 299 300 301 303 305 311 310 310 300 311 310 323 328 320 324 318 314 315 313 309 310 308 303 305 295 302 309 315 315 305 293 295 303 285 280 262 250 247 257
277 280 284 288 293 295 297 298 302 307 306 308 304 301 302 299 308 314 319 325 322 319 313 306 305 304 304 302 300 303 302 303 305 317 314 306 298 289 299 300 284 266 262 255 257
284 285 289 293 296 298 300 300 296 294 293 287 295 296 308 304 304 302 312 323 317 305 298 300 298 297 300 296 301 302 304 305 309 313 310 303 300 298 300 298 292 274 259 256 260
292 300 306 299 303 301 305 299 297 299 290 289 286 286 289 294 285 288 296 290 291 289 292 292 288 291 292 295 295 298 300 301 303 305 307 304 298 297 294 288 277 272 261 254 261
295 299 305 307 307 301 299 300 310 309 293 289 290 287 286 283 279 280 285 285 282 280 277 280 290 297 293 294 292 291 291 296 297 303 303 303 295 292 289 280 282 278 270 265 255
290 296 300 307 296 296 293 307 316 313 294 290 295 296 296 289 283 286 273 276 282 279 280 283 284 284 288 290 291 292 293 293 295 299 296 308 290 299 299 288 287 284 279 276 272
286 290 296 299 295 292 294 302 312 314 290 293 298 314 311 295 299 300 298 274 270 277 280 281 287 285 282 285 288 292 298 295 295 294 296 293 295 298 309 299 297 296 292 287 280
281 282 287 291 290 291 292 293 303 288 283 288 297 296 293 294 300 304 305 301 292 277 280 280 288 287 288 293 286 297 295 295 295 292 286 288 288 274 296 295 300 301 297 291 285
283 281 288 294 283 292 289 285 279 275 291 288 289 290 290 291 290 294 290 283 284 284 280 282 278 282 284 287 291 287 289 291 288 284 285 292 285 283 301 304 306 303 300 296 292
271 277 290 297 304 299 279 275 270 280 277 290 295 293 284 290 290 286 289 282 280 286 288 287 288 280 280 272 276 276 277 279 286 286 289 290 285 290 302 304 303 303 301 299 295
265 273 280 282 297 295 269 267 271 275 284 286 290 288 286 287 289 288 284 286 287 276 283 288 288 292 293 290 272 283 276 282 282 286 288 286 291 298 301 301 303 304 304 301 297
263 269 275 275 276 271 267 269 273 278 287 286 282 290 286 288 285 285 286 300 290 283 280 293 287 292 292 295 288 286 301 285 281 283 281 284 289 291 301 300 302 303 303 306 305
275 271 282 260 267 265 263 267 275 278 284 284 281 283 286 287 288 286 289 295 298 297 285 285 283 288 298 293 287 287 285 287 291 282 286 288 291 307 301 303 306 307 309 313 311
284 268 285 244 260 265 262 272 282 282 279 281 285 282 280 284 286 286 286 291 301 301 292 295 291 284 284 294 299 299 296 292 281 282 289 289 287 310 312 311 316 313 310 311 309
274 281 289 266 262 260 266 269 277 279 277 278 275 279 285 285 282 280 288 307 317 298 294 297 291 285 284 287 296 294 297 296 292 290 282 285 289 303 310 306 307 307 306 305 306
271 270 274 269 271 266 265 268 272 278 277 277 278 277 277 277 281 284 281 289 304 307 309 308 291 286 284 288 295 292 295 298 296 289 291 287 292 294 296 306 300 298 296 297 303
268 268 271 267 268 270 268 277 269 271 274 271 274 271 270 273 273 275 279 286 287 290 298 299 286 290 292 296 298 297 294 297 295 294 292 296 296 296 294 302 301 303 301 297 294
271 270 272 269 268 276 281 271 275 270 270 267 269 270 267 270 272 279 278 280 283 291 287 288 288 291 290 294 293 291 293 294 291 290 290 292 295 298 294 302 300 298 300 298 296
281 282 276 272 271 266 270 273 282 282 280 272 272 271 269 269 277 278 283 287 287 290 289 289 288 290 291 297 297 291 291 291 294 296 296 292 295 299 300 303 300 299 302 299 299